Espace membre
Imprimable
Challenges > Delhalle - Châtelet, 09/06/2019, BEL - La Châtelettaine
Liste des rapports > Delhalle - 14km - Classement
Recherche: Page: [1]
86 Entrées
 
Les réclamations ne sont plus acceptées, les résultats sont considérés comme définitifs.
RangNrNomAgeIOCLigueEquipeRéelTempsTkmMoy.ScrPtsLocalité
1.1221EL HACHIMI ABDELHADI45BELJOG+JOG+46:5846:583:21 17.9511175
2.1222MAJNIOUI AHMED44BELENJAMBEENJAMBEE49:2049:213:31 17.0941124
3.403POCHET ALEXANDRE42BELJCCS51:2251:233:40 16.4181082GEDINNE
4.110PONCELET XAVIER44BELCABWTRAKKS54:2554:273:53 15.49141020VITRIVAL
5.703BRUYÈRE PATRICK42BELBOUFFIOLS54:5454:573:55 15.35161010CHÂTELET
6.1342TOUINA KADDOUR43BELOSGAOSGA56:0456:074:00 15.0319988
7.407PAQUET OLIVIER43BELJACOJACO57:1257:154:05 14.7325964COUVIN
8.1110CHEZZA GIANNI48BELPRESLESPRESLES57:2257:254:06 14.6927960
9.1243D'ONOFRIO DAVIDE42BELACLOACLO57:3057:334:06 14.6628957
10.1329CARLOT RAPHAEL41BELACBBACBBS57:5858:024:08 14.5331947
11.691GUTIERREZ MANU44BELUAC1:00:241:00:314:19 13.9442899LAMBUSART
12.1347TORRES SYLVANO40ITABOUFFIOBOUFFIOLS1:01:291:01:324:23 13.7148878
13.984BLONDEAUX YANNICK43BEL1:01:561:02:074:26 13.5851869THY-LE-CHATEAU
14.748SALAZAR NOEL46BELRIBC1:02:391:02:394:28 13.4655855MOLENBEEK
15.1208QUINTELA DANIEL49PRTJETJET1:02:331:02:404:28 13.4657855
16.6868LEBRUN XAVIER41BEL1:02:371:02:434:28 13.4558854NALINNES
17.354DETEZ VALERY45BELETCHIEVRES1:02:291:02:574:29 13.4062853ROSIÈRES
18.1197PORTUGAL FREDERICO42PRTRCNAMUR1:03:341:03:394:32 13.2566833NAMUR
19.941MOREAUX OLIVIER49BELTRAVEL2RUN1:04:221:04:324:36 13.0768820SOMBREFFE
20.901VANDERHAEGEN SAMUEL41BELJTP BLANCS GILETS1:04:581:05:054:38 12.9675806GENAPPE
21.1173MARZETTA BRIAN46BELBOUFFIOBOUFFIOLS1:05:241:05:344:40 12.8679797
22.1364TORRES RICARDO45BELBOUFFIOBOUFFIOLS1:05:251:05:374:41 12.8580796
23.1136JAVAUX MAXIME42BELQ3T1:05:301:05:504:42 12.8182793LIGNY
24.823DUMOULIN LAURENT49BEL--1:06:111:06:194:44 12.7285781MONS
25.1103LOTERMAN STÉPHANE45BELESM1:05:591:06:304:44 12.6888782GOUTROUX
26.1270BRUNO STEFANO48BELUACUAC1:06:251:06:374:45 12.6692773
27.78DUTRIEUX FERNAND48BEL1:06:311:06:404:45 12.6595770BAUDOUR
28.1289RAMI SAID47BELUACUAC1:06:411:06:534:46 12.6197766
29.1378PETINIOT GEOFFROY40BEL1:07:431:07:464:50 12.44107744
30.1162DESPONTIN FABIEN49BEL1:07:381:07:464:50 12.44108744
31.1096CORNET DANIEL48BELESMESM1:07:471:07:534:50 12.42110741COURCELLES
32.6870VAN DE CATSEYN PASCAL43BEL1:07:491:07:564:50 12.41112739CHATELET
33.1362DEKNOP BENOIT49BELCPMVCPMV1:07:381:08:044:51 12.39113741
34.612CHARLES CHRISTOPHE43BELCSFMYSTERE1:08:101:08:224:52 12.34115732FOREST
35.1177NICOLAS CARLOS48ESPENJAMBEE1:08:101:08:454:54 12.27123727WOLUWE-ST-PIERRE
36.1294COUPIN PATRICK47BELENJAMBEE1:08:281:09:034:55 12.21128720ZAVENTEM
37.1280DULIEU STEVE41BELUACUAC1:09:091:09:204:56 12.16130708
38.1082RIGON DAVID47BELESM1:09:571:10:034:59 12.04135694CHARLEROI
39.1341LEQUARRE BERTRAND44BELJC HSHJC HSH1:10:151:10:235:01 11.98137688
40.709LOMBART LUC49BELUACUAC1:11:071:11:125:04 11.84144672FERNELMONT
41.253DUQUESNE EMMANUEL41BELFORESTIERE1:11:201:11:345:06 11.78148666JURBISE
42.69DOMINICY FRANÇOIS44BELMYSTERE1:11:241:11:355:06 11.78150664BRUXELLES
43.991DE HERTOG PHILIPPE49BELAFRIT 71:11:401:11:475:07 11.75156656WETTEREN
44.695DE DAPPER DAVID46BELCSFMYSTERE1:12:191:12:215:09 11.66164642BRUXELLES
45.1274DUTRON REGIS41BEL1:12:191:12:245:10 11.65168639
46.923CEULEMANS NICOLAS49BELANTILOB1:12:241:12:415:11 11.60175634INCOURT
47.689DEGROOTE NICOLAAS44BELRCABWNAC1:13:441:14:015:16 11.39191605BRUXELLES
48.514GREVISSE DAVID45BELRONVAU1:13:571:14:165:17 11.36197598DION VALMONT
49.543LAFORGE FREDERIC44BELWACO1:14:141:14:255:18 11.33198594HANEFFE
50.322THONON OLIVIER47BELHACRUNNING TEAM CONDROZ1:14:251:14:365:19 11.30202589NEUPRÉ
51.1264BESCHIN ERIC48ITA1:14:501:15:025:21 11.24208579BOUFFIOULX
52.1260AGOSTA RINO48ITANUTRINONUTRINO1:15:141:15:295:23 11.17212571
53.978SULEJ ALAIN49BELUAC1:15:531:15:535:24 11.11218559CHÂTELET
54.379GROSJEAN JEAN-FRANÇOIS48BEL1:15:191:15:555:25 11.11219566FOSSES-LA-VILLE
55.1157TOSCANUCCI MICHAËL44BELZATAC CHARLEROI1:16:571:17:265:31 10.89236534MARCHIENNES-AU -PONT
56.1106EVERARD ETIENNE45BELESM1:17:251:17:315:31 10.88237527GOURDINNE
57.1249DI PALMA MAURO45ITA1:17:021:17:345:32 10.87239531CHÂTELET
58.1346DE LAVAREILLE JEAN-FRANCOIS43BEL1:17:531:17:565:33 10.82247514
59.637BALFROID YVAN49BEL1:18:331:19:005:38 10.68260498BOUGE
60.1333BOUDOU RACHID41BEL1:18:301:19:025:38 10.67262497
61.1112MAQUE MICHAEL46BEL1:18:371:19:035:38 10.67263495
62.1323DESMANET ALAIN-PHILIPPE47BEL1:18:491:19:185:39 10.63267490ST-AMAND
63.6878MICHEL DIMITRI44BELESM1:20:221:20:375:45 10.46287457GILLY
64.199ALAIME SEBASTIEN47BELSPTWAVRE1:20:041:20:415:45 10.45289460LIMAL
65.273SABLON DOMINIQUE49BELCRAC1:20:421:21:145:47 10.38294449FORCHIES-LA-MARCHE
66.1269GHYSELS FRED46BEL1:21:231:22:015:51 10.28306433
67.206LEDUC STÉPHANE48BELUACUAC1:22:531:23:005:55 10.16318407CHATELET
68.1370PIROZZI STEPHANE43BELCPMV1:23:401:23:525:59 10.06331389CHATELET
69.951DEGLÉ STEVE41BELSTEVIE ON THE RUN1:24:541:25:286:05 9.87349363VAULX
70.1219GOISSE OLIVIER46BELTEAM NUTEAM NUT'RINO1:25:491:26:046:08 9.80357347
71.99GLORIEUX FRÉDÉRIC47BELMYSTERE1:26:271:27:106:13 9.67369332EVERE
72.1339HENRY PHILIPPE48BELLA THURLA THURE1:27:491:28:036:16 9.58381308
73.1363LECUYER FRED48BEL1:28:011:28:256:18 9.54391299
74.1251PAREE TERENCE41BELZATAC CHARLEROI1:27:591:28:306:18 9.53392299FONTAINE-L'EVÊQUE
75.95MANSY STEVEN46BELJCPMF FLV1:28:271:29:016:20 9.47397291FOSSES
76.1279DUDEK OLIVIER47BEL1:28:561:29:256:22 9.43400284
77.402GALLOT DOMINIQUE45BELJC HSH1:30:551:31:036:29 9.26418250HAM-SUR-HEURE
78.1191PIERARD DANIEL44BEL1:31:251:31:466:32 9.19423241FLEURUS
79.1277CAVEDURI BRUNO48BEL1:34:471:35:276:48 8.84445191
80.1232PINERA JOHAN42BELJEM'ACTIVE1:36:201:36:436:53 8.72452171MOUSTIER SUR SAMBRE
81.274DERUYCK SERGE46BEL1:37:481:38:287:01 8.56457153BAISY-THY
82.1314DEWEZ LAURENT47BEL1:39:121:39:527:07 8.44466133CHARLEROI
83.594BOSSANT JEAN-FRANÇOIS44BELFER1:39:591:39:597:07 8.43467124VELLEREILLE-LE-SEC
84.1087HERPAIN CEDRIC48BELESMESM1:42:271:43:017:20 8.1948787LOBBES
85.1372BENABBAS IDIR43BEL1:43:441:44:247:26 8.0849470FOREST
86.1130VERFAILLIE STEPHANE44BEL1:45:211:45:497:32 7.9749654
DNF: abandon; DSQ: disqualifié; Vitesse en km/h
Page: [1]